Meteo Giornale » Osservazioni meteo Spagna » Santander-Parayas
ore: 15:30 - Osservazioni Meteo Santander-Parayas
Lat. 43° 26' N Lon. 3° 49' W Alt. 6 metri s.l.m.
23 °C
Molto Nuvoloso
Temp. 24 Ore
15 °C
23 °C
Nord
9.3 Km/h
Dew point 18 °C
Umidità 73 %
Visibilità 10 Km
Il sole sorge alle ore 07:39
Il sole tramonta alle ore 20:51
| Data e Ora | Cielo e Fenomeni | T °C | DP °C | Um. % | Pres. hPa | Vis. km | Vento km/h | |
|---|---|---|---|---|---|---|---|---|
| Oggi h: 15:30 | Molto Nuvoloso | 23 | 18 | 73 | 1021 | 10 | N 9.3 | |
| Oggi h: 15:00 | Molto Nuvoloso | 22 | 18 | 78 | 1021 | 10 | E/NE 11.1 | |
| Oggi h: 14:30 | Molto Nuvoloso | 22 | 18 | 78 | 1021 | 10 | NE 11.1 | |
| Oggi h: 14:00 | Molto Nuvoloso | 22 | 18 | 78 | 1021 | 10 | N 9.3 | |
| Oggi h: 13:30 | Molto Nuvoloso | 21 | 18 | 82 | 1021 | 10 | NE 9.3 | |
| Oggi h: 13:00 | Molto Nuvoloso | 22 | 18 | 78 | 1021 | 10 | NE 9.3 | |
| Oggi h: 12:30 | Molto Nuvoloso | 22 | 18 | 78 | 1022 | 10 | N 5.5 | |
| Oggi h: 12:00 | Molto Nuvoloso | 21 | 17 | 77 | 1022 | 10 | NE 7.4 | |
| Oggi h: 11:30 | Molto Nuvoloso | 20 | 17 | 82 | 1021 | 10 | N 1.8 | |
| Oggi h: 11:00 | Coperto | 19 | 16 | 82 | 1021 | 10 | N 3.7 | |
| Oggi h: 10:30 | Coperto | 18 | 16 | 88 | 1021 | 10 | N 5.5 | |
| Oggi h: 10:00 | Coperto | 18 | 15 | 82 | 1021 | 10 | N 1.8 | |
| Oggi h: 09:30 | Molto Nuvoloso | 17 | 15 | 88 | 1021 | 10 | N 3.7 | |
| Oggi h: 09:00 | Nuvoloso | 16 | 15 | 93 | 1021 | 10 | N 3.7 | |
| Oggi h: 08:30 | Sereno | 15 | 15 | 100 | 1021 | 10 | N 5.5 | |
| Oggi h: 08:00 | Sereno | 15 | 14 | 93 | 1021 | 10 | N 1.8 | |
| Oggi h: 07:30 | Nuvoloso | 15 | 14 | 93 | 1021 | 10 | N 1.8 | |
| Oggi h: 07:00 | Nuvoloso | 15 | 15 | 100 | 1021 | 9 | N 1.8 | |
| Oggi h: 06:30 | Nuvoloso | 15 | 15 | 100 | 1021 | 9 | N 1.8 | |
| Oggi h: 06:00 | Sereno | 15 | 15 | 100 | 1021 | 8 | N 5.5 | |
| Oggi h: 05:30 | Sereno | 15 | 15 | 100 | 1021 | 9 | N 3.7 | |
| Oggi h: 05:00 | Sereno | 16 | 15 | 93 | 1021 | 10 | N 3.7 | |
| Oggi h: 04:30 | Sereno | 16 | 15 | 93 | 1022 | 10 | N 1.8 | |
| Oggi h: 04:00 | Sereno | 16 | 15 | 93 | 1022 | 10 | N 0 | |
| Oggi h: 03:30 | Sereno | 16 | 15 | 93 | 1022 | 10 | N 3.7 | |
| Oggi h: 03:00 | Sereno | 16 | 15 | 93 | 1022 | 10 | N 5.5 | |
| Oggi h: 02:30 | Poco Nuvoloso | 17 | 16 | 93 | 1022 | 10 | N 1.8 | |
| Oggi h: 02:00 | Poco Nuvoloso | 17 | 15 | 88 | 1023 | 10 | N 3.7 | |
| Oggi h: 01:30 | Molto Nuvoloso | 17 | 16 | 93 | 1023 | 10 | N 5.5 | |
| Oggi h: 01:00 | Molto Nuvoloso | 18 | 16 | 88 | 1023 | 10 | N 5.5 | |
| Oggi h: 00:30 | Coperto | 19 | 17 | 88 | 1023 | 10 | N 3.7 | |
| Oggi h: 00:00 | Molto Nuvoloso | 19 | 16 | 82 | 1023 | 10 | N 5.5 | |
| Ieri h: 23:30 | Coperto | 19 | 16 | 82 | 1023 | 10 | N 5.5 | |
| Ieri h: 23:00 | Coperto | 20 | 16 | 77 | 1023 | 10 | E/SE 7.4 | |
| Ieri h: 22:30 | Molto Nuvoloso | 20 | 16 | 77 | 1023 | 10 | E/SE 7.4 | |
| Ieri h: 22:00 | Molto Nuvoloso | 21 | 17 | 77 | 1023 | 10 | N 5.5 | |
| Ieri h: 21:30 | Molto Nuvoloso | 21 | 16 | 73 | 1022 | 10 | N 5.5 | |
| Ieri h: 21:00 | Nuvoloso | 21 | 16 | 73 | 1022 | 10 | N 5.5 | |
| Ieri h: 20:30 | Nuvoloso | 21 | 17 | 77 | 1022 | 10 | N 5.5 | |
| Ieri h: 20:00 | Nuvoloso | 21 | 16 | 73 | 1022 | 10 | N 5.5 | |
| Ieri h: 19:30 | Molto Nuvoloso | 21 | 16 | 73 | 1022 | 10 | N 5.5 | |
| Ieri h: 19:00 | Molto Nuvoloso | 22 | 16 | 68 | 1022 | 10 | N 5.5 | |
| Ieri h: 18:30 | Nuvoloso | 22 | 16 | 68 | 1022 | 10 | NE 7.4 | |
| Ieri h: 18:00 | Nuvoloso | 22 | 16 | 68 | 1023 | 10 | NE 7.4 | |
| Ieri h: 17:30 | Nuvoloso | 22 | 15 | 64 | 1023 | 10 | N/NE 9.3 | |
| Ieri h: 17:00 | Nuvoloso | 22 | 16 | 68 | 1023 | 10 | N/NE 9.3 | |



